User: anonymous   Login
Location: Unspecified
(0.0000°N, 0.0000°E)
Time: 11:48:39
(UTC+02:00)
Language:

CZ-4 DEB - Orbit

View from above orbital plane
View from above orbital plane
View from above satellite
View from above satellite

Ground track
Ground track

The orbit data is extracted from the following two-line orbital elements,

1 29508U 06046D   16182.68465737  .00015685  00000-0  28155-3 0  9993
2 29508  97.6468 223.9787 0003860 151.3439 208.8024 15.49988921531084
Epoch (UTC): 30 June 2016 16:25:54
Eccentricity: 0.0003860
inclination: 97.6468°
perigee height: 414 km
apogee height: 419 km
right ascension of ascending node: 223.9787°
argument of perigee: 151.3439°
revolutions per day: 15.49988921
mean anomaly at epoch: 208.8024°
orbit number at epoch: 53108

The dashed part of the orbit path shows where the satellite is in the earth's shadow,  

DLR